This demonstration page uses our WeatherBlox Daily Observations layout. Learn more.

Left ArrowRight Arrow

Hourly Observations for April 2, 2017

Temp ( °F °C ) Dew Point ( °F °C ) Humidity (%) Winds ( mph kmh ) Pressure ( in mb ) Visibility ( mi km ) Precip ( " mm )
12:53 am 00:53 Clear 69 20.6 46 7.8 44 44 VRB 5 7 29.96 1015 10 16 0.00 0.00
1:53 am 01:53 Clear 66 18.9 46 7.8 49 49 N 6 9 29.98 1015 10 16 0.00 0.00
2:53 am 02:53 Clear 62 16.7 47 8.3 58 58 NNW 7 11 29.99 1016 10 16 0.00 0.00
3:53 am 03:53 Clear 65 18.3 47 8.3 52 52 NNW 9 15 29.99 1016 10 16 0.00 0.00
4:53 am 04:53 Clear 65 18.3 47 8.3 52 52 NNW 10 17 30.00 1016 10 16 0.00 0.00
5:53 am 05:53 Clear 64 17.8 45 7.2 50 50 NNW 10 17 30.01 1016 10 16 0.00 0.00
6:53 am 06:53 Sunny 63 17.2 45 7.2 52 52 NNW 10 17 30.04 1017 10 16 0.00 0.00
7:53 am 07:53 Sunny 64 17.8 43 6.1 46 46 NNW 14 22 30.05 1018 10 16 0.00 0.00
8:53 am 08:53 Sunny 66 18.9 41 5 40 40 NNW 15 24 30.06 1018 10 16 0.00 0.00
9:53 am 09:53 Sunny 68 20 38 3.3 33 33 N 15 24 30.06 1018 10 16 0.00 0.00
10:53 am 10:53 Sunny 72 22.2 33 0.6 24 24 NNW 15 24 30.05 1018 10 16 0.00 0.00
11:53 am 11:53 Sunny 74 23.3 31 -0.6 20 20 N 16 26 30.05 1018 10 16 0.00 0.00
12:53 pm 12:53 Sunny 76 24.4 28 -2.2 17 17 N 14 22 30.04 1017 10 16 0.00 0.00
1:53 pm 13:53 Sunny 78 25.6 31 -0.6 18 18 N 10 17 30.01 1016 10 16 0.00 0.00
2:53 pm 14:53 Sunny 79 26.1 24 -4.4 13 13 NNE 17 28 29.99 1016 10 16 0.00 0.00
3:53 pm 15:53 Sunny 79 26.1 27 -2.8 15 15 NE 13 20 29.96 1015 10 16 0.00 0.00
4:53 pm 16:53 Sunny 79 26.1 21 -6.1 11 11 N 15 24 29.93 1014 10 16 0.00 0.00
5:53 pm 17:53 Sunny 77 25 24 -4.4 14 14 NNE 10 17 29.89 1012 10 16 0.00 0.00
6:53 pm 18:53 Sunny 73 22.8 30 -1.1 20 20 NNE 6 9 29.88 1012 10 16 0.00 0.00
7:53 pm 19:53 Clear 66 18.9 28 -2.2 24 24 N 3 6 29.88 1012 10 16 0.00 0.00
8:53 pm 20:53 Clear 64 17.8 31 -0.6 29 29 NNE 6 9 29.89 1012 10 16 0.00 0.00
9:53 pm 21:53 Clear 65 18.3 30 -1.1 27 27 NNW 6 9 29.92 1013 10 16 0.00 0.00
10:53 pm 22:53 Clear 64 17.8 29 -1.7 27 27 NNW 6 9 29.93 1014 10 16 0.00 0.00
11:53 pm 23:53 Clear 59 15 30 -1.1 33 33 NNE 3 6 29.95 1014 10 16 0.00 0.00

Powered by AerisWeather